"Sample Date","Sample Time","Sample Value","Units","Flow Rate","Sample Interval","Number Channels","Micron Size 0","Counts/Channel 0","Micron Size 1","Counts/Channel 1","Micron Size 2","Counts/Channel 2","Micron Size 3","Counts/Channel 3","Micron Size 4","Counts/Channel 4","Micron Size 5","Counts/Channel 5","Micron Size 6","Counts/Channel 6","Micron Size 7","Counts/Channel 7","Micron Size 8","Counts/Channel 8","Micron Size 9","Counts/Channel 9","Micron Size 10","Counts/Channel 10","Micron Size 11","Counts/Channel 11","Micron Size 12","Counts/Channel 12","Micron Size 13","Counts/Channel 13","Micron Size 14","Counts/Channel 14","Micron Size 15","Counts/Channel 15","Micron Size 16","Counts/Channel 16","Micron Size 17","Counts/Channel 17","Micron Size 18","Counts/Channel 18","Micron Size 19","Counts/Channel 19","Micron Size 20","Counts/Channel 20","Micron Size 21","Counts/Channel 21","Micron Size 22","Counts/Channel 22","Micron Size 23","Counts/Channel 23","Micron Size 24","Counts/Channel 24","Micron Size 25","Counts/Channel 25","Micron Size 26","Counts/Channel 26","Micron Size 27","Counts/Channel 27","Micron Size 28","Counts/Channel 28","Micron Size 29","Counts/Channel 29","Micron Size 30","Counts/Channel 30","Micron Size 31","Counts/Channel 31"
"04/05/08","09:00:00",4677.000,"cc",28333.002,6.00,6,0.100,4522.000,0.200,126.000,0.300,23.000,0.500,6.000,1.000,0,5.000,0
"04/05/08","09:00:06",4936.000,"cc",28357.279,6.00,6,0.100,4784.000,0.200,144.000,0.300,8.000,0.500,0,1.000,0,5.000,0
"04/05/08","09:00:12",4845.000,"cc",28278.633,6.00,6,0.100,4700.000,0.200,136.000,0.300,9.000,0.500,0,1.000,0,5.000,0
"04/05/08","09:00:18",5143.000,"cc",28339.342,6.00,6,0.100,4978.000,0.200,154.000,0.300,8.000,0.500,3.000,1.000,0,5.000,0
"04/05/08","09:00:24",5134.000,"cc",28303.252,6.00,6,0.100,4977.000,0.200,153.000,0.300,4.000,0.500,0,1.000,0,5.000,0
"04/05/08","09:00:30",5400.000,"cc",28291.736,6.00,6,0.100,5229.000,0.200,169.000,0.300,2.000,0.500,0,1.000,0,5.000,0
"04/05/08","09:00:36",5504.000,"cc",28363.592,6.00,6,0.100,5349.000,0.200,149.000,0.300,6.000,0.500,0,1.000,0,5.000,0
"04/05/08","09:00:42",5450.000,"cc",28328.881,6.00,6,0.100,5280.000,0.200,166.000,0.300,4.000,0.500,0,1.000,0,5.000,0
"04/05/08","09:00:48",5446.000,"cc",28285.531,6.00,6,0.100,5289.000,0.200,148.000,0.300,9.000,0.500,0,1.000,0,5.000,0
"04/05/08","09:00:54",5041.000,"cc",28335.650,6.00,6,0.100,4894.000,0.200,145.000,0.300,2.000,0.500,0,1.000,0,5.000,0
"04/05/08","09:01:00",5085.000,"cc",28282.332,6.00,6,0.100,4908.000,0.200,168.000,0.300,9.000,0.500,0,1.000,0,5.000,0
"04/05/08","09:01:06",5060.000,"cc",28319.477,6.00,6,0.100,4896.000,0.200,159.000,0.300,5.000,0.500,0,1.000,0,5.000,0
"04/05/08","09:01:12",5506.000,"cc",28320.543,6.00,6,0.100,5331.000,0.200,161.000,0.300,13.000,0.500,1.000,1.000,0,5.000,0
"04/05/08","09:01:18",5017.000,"cc",28341.041,6.00,6,0.100,4850.000,0.200,156.000,0.300,11.000,0.500,0,1.000,0,5.000,0
"04/05/08","09:01:24",4780.000,"cc",28284.400,6.00,6,0.100,4644.000,0.200,128.000,0.300,8.000,0.500,0,1.000,0,5.000,0
"04/05/08","09:01:30",4257.000,"cc",28286.270,6.00,6,0.100,4144.000,0.200,109.000,0.300,4.000,0.500,0,1.000,0,5.000,0
"04/05/08","09:01:36",3900.000,"cc",28307.986,6.00,6,0.100,3778.000,0.200,116.000,0.300,6.000,0.500,0,1.000,0,5.000,0
"04/05/08","09:01:42",3730.000,"cc",28330.781,6.00,6,0.100,3625.000,0.200,103.000,0.300,2.000,0.500,0,1.000,0,5.000,0
"04/05/08","09:01:48",4013.000,"cc",28312.025,6.00,6,0.100,3920.000,0.200,90.000,0.300,2.000,0.500,1.000,1.000,0,5.000,0
"04/05/08","09:01:54",4179.000,"cc",28319.715,6.00,6,0.100,4077.000,0.200,95.000,0.300,7.000,0.500,0,1.000,0,5.000,0
"04/05/08","09:02:00",3927.000,"cc",28271.199,6.00,6,0.100,3831.000,0.200,95.000,0.300,1.000,0.500,0,1.000,0,5.000,0
"04/05/08","09:02:06",4375.000,"cc",28299.232,6.00,6,0.100,4287.000,0.200,82.000,0.300,6.000,0.500,0,1.000,0,5.000,0
"04/05/08","09:02:12",3920.000,"cc",28332.311,6.00,6,0.100,3849.000,0.200,70.000,0.300,1.000,0.500,0,1.000,0,5.000,0
"04/05/08","09:02:18",4192.000,"cc",28302.559,6.00,6,0.100,4084.000,0.200,103.000,0.300,5.000,0.500,0,1.000,0,5.000,0
"04/05/08","09:02:24",4357.000,"cc",28373.229,6.00,6,0.100,4249.000,0.200,106.000,0.300,2.000,0.500,0,1.000,0,5.000,0
"04/05/08","09:02:30",4975.000,"cc",28344.869,6.00,6,0.100,4695.000,0.200,203.000,0.300,46.000,0.500,31.000,1.000,0,5.000,0
"04/05/08","09:02:36",4657.000,"cc",28337.125,6.00,6,0.100,4526.000,0.200,127.000,0.300,4.000,0.500,0,1.000,0,5.000,0
"04/05/08","09:02:42",4187.000,"cc",28297.760,6.00,6,0.100,4049.000,0.200,135.000,0.300,3.000,0.500,0,1.000,0,5.000,0
"04/05/08","09:02:48",4052.000,"cc",28300.674,6.00,6,0.100,3946.000,0.200,101.000,0.300,5.000,0.500,0,1.000,0,5.000,0
"04/05/08","09:02:54",4059.000,"cc",28275.219,6.00,6,0.100,3943.000,0.200,111.000,0.300,5.000,0.500,0,1.000,0,5.000,0
"04/05/08","09:03:00",4399.000,"cc",28342.467,6.00,6,0.100,4270.000,0.200,127.000,0.300,2.000,0.500,0,1.000,0,5.000,0
"04/05/08","09:03:06",4662.000,"cc",28315.039,6.00,6,0.100,4534.000,0.200,119.000,0.300,8.000,0.500,1.000,1.000,0,5.000,0
"04/05/08","09:03:12",4930.000,"cc",28379.600,6.00,6,0.100,4775.000,0.200,145.000,0.300,10.000,0.500,0,1.000,0,5.000,0
"04/05/08","09:03:18",5012.000,"cc",28320.650,6.00,6,0.100,4863.000,0.200,147.000,0.300,2.000,0.500,0,1.000,0,5.000,0
"04/05/08","09:03:24",5019.000,"cc",28305.859,6.00,6,0.100,4878.000,0.200,141.000,0.300,0,0.500,0,1.000,0,5.000,0
"04/05/08","09:03:30",5200.000,"cc",28379.100,6.00,6,0.100,5028.000,0.200,168.000,0.300,4.000,0.500,0,1.000,0,5.000,0
"04/05/08","09:03:36",5222.000,"cc",28274.463,6.00,6,0.100,5079.000,0.200,137.000,0.300,6.000,0.500,0,1.000,0,5.000,0
"04/05/08","09:03:42",5155.000,"cc",28267.682,6.00,6,0.100,5004.000,0.200,148.000,0.300,3.000,0.500,0,1.000,0,5.000,0
"04/05/08","09:03:48",5060.000,"cc",28313.100,6.00,6,0.100,4914.000,0.200,143.000,0.300,3.000,0.500,0,1.000,0,5.000,0
"04/05/08","09:03:54",4817.000,"cc",28321.322,6.00,6,0.100,4666.000,0.200,149.000,0.300,1.000,0.500,1.000,1.000,0,5.000,0
"04/05/08","09:04:00",4843.000,"cc",28299.320,6.00,6,0.100,4682.000,0.200,157.000,0.300,4.000,0.500,0,1.000,0,5.000,0
"04/05/08","09:04:06",3712.000,"cc",28369.789,6.00,6,0.100,3616.000,0.200,94.000,0.300,2.000,0.500,0,1.000,0,5.000,0
"04/05/08","09:04:12",4110.000,"cc",28284.531,6.00,6,0.100,4003.000,0.200,104.000,0.300,3.000,0.500,0,1.000,0,5.000,0
"04/05/08","09:04:18",3687.000,"cc",28245.180,6.00,6,0.100,3588.000,0.200,93.000,0.300,3.000,0.500,3.000,1.000,0,5.000,0
"04/05/08","09:04:24",3836.000,"cc",28371.982,6.00,6,0.100,3628.000,0.200,132.000,0.300,49.000,0.500,21.000,1.000,6.000,5.000,0
"04/05/08","09:04:30",3086.000,"cc",28297.982,6.00,6,0.100,3016.000,0.200,66.000,0.300,3.000,0.500,1.000,1.000,0,5.000,0
"04/05/08","09:04:36",3710.000,"cc",28317.172,6.00,6,0.100,3616.000,0.200,90.000,0.300,4.000,0.500,0,1.000,0,5.000,0
"04/05/08","09:04:42",4161.000,"cc",28332.877,6.00,6,0.100,4036.000,0.200,116.000,0.300,5.000,0.500,3.000,1.000,1.000,5.000,0
"04/05/08","09:04:48",4110.000,"cc",28315.297,6.00,6,0.100,3973.000,0.200,131.000,0.300,6.000,0.500,0,1.000,0,5.000,0
"04/05/08","09:04:54",3924.000,"cc",28290.729,6.00,6,0.100,3803.000,0.200,114.000,0.300,7.000,0.500,0,1.000,0,5.000,0
"04/05/08","09:05:00",3787.000,"cc",28319.516,6.00,6,0.100,3655.000,0.200,123.000,0.300,9.000,0.500,0,1.000,0,5.000,0
"04/05/08","09:05:06",3446.000,"cc",28348.006,6.00,6,0.100,3357.000,0.200,82.000,0.300,6.000,0.500,0,1.000,1.000,5.000,0
"04/05/08","09:05:12",3257.000,"cc",28293.725,6.00,6,0.100,3163.000,0.200,88.000,0.300,5.000,0.500,1.000,1.000,0,5.000,0
"04/05/08","09:05:18",3611.000,"cc",28321.576,6.00,6,0.100,3496.000,0.200,104.000,0.300,11.000,0.500,0,1.000,0,5.000,0
"04/05/08","09:05:24",3766.000,"cc",28320.361,6.00,6,0.100,3655.000,0.200,102.000,0.300,9.000,0.500,0,1.000,0,5.000,0
"04/05/08","09:05:30",3811.000,"cc",28340.691,6.00,6,0.100,3702.000,0.200,105.000,0.300,3.000,0.500,0,1.000,1.000,5.000,0
"04/05/08","09:05:36",4005.000,"cc",28285.199,6.00,6,0.100,3868.000,0.200,125.000,0.300,9.000,0.500,2.000,1.000,1.000,5.000,0
"04/05/08","09:05:42",4177.000,"cc",28247.732,6.00,6,0.100,4015.000,0.200,131.000,0.300,22.000,0.500,7.000,1.000,2.000,5.000,0
"04/05/08","09:05:48",4066.000,"cc",28369.047,6.00,6,0.100,3938.000,0.200,121.000,0.300,7.000,0.500,0,1.000,0,5.000,0
"04/05/08","09:05:54",4231.000,"cc",28331.744,6.00,6,0.100,4107.000,0.200,117.000,0.300,7.000,0.500,0,1.000,0,5.000,0
"04/05/08","09:06:00",4428.000,"cc",28293.477,6.00,6,0.100,4293.000,0.200,125.000,0.300,9.000,0.500,1.000,1.000,0,5.000,0
"04/05/08","09:06:06",4358.000,"cc",28357.957,6.00,6,0.100,4201.000,0.200,143.000,0.300,11.000,0.500,2.000,1.000,1.000,5.000,0
"04/05/08","09:06:12",4432.000,"cc",28289.254,6.00,6,0.100,4299.000,0.200,129.000,0.300,4.000,0.500,0,1.000,0,5.000,0
"04/05/08","09:06:18",4675.000,"cc",28291.676,6.00,6,0.100,4508.000,0.200,160.000,0.300,7.000,0.500,0,1.000,0,5.000,0
"04/05/08","09:06:24",4789.000,"cc",28330.504,6.00,6,0.100,4637.000,0.200,136.000,0.300,14.000,0.500,1.000,1.000,1.000,5.000,0
"04/05/08","09:06:30",5117.000,"cc",28330.068,6.00,6,0.100,4949.000,0.200,159.000,0.300,9.000,0.500,0,1.000,0,5.000,0
"04/05/08","09:06:36",5218.000,"cc",28288.842,6.00,6,0.100,5048.000,0.200,164.000,0.300,6.000,0.500,0,1.000,0,5.000,0
"04/05/08","09:06:42",5661.000,"cc",28305.150,6.00,6,0.100,5386.000,0.200,224.000,0.300,34.000,0.500,16.000,1.000,1.000,5.000,0
"04/05/08","09:06:48",5915.000,"cc",28346.738,6.00,6,0.100,5676.000,0.200,225.000,0.300,14.000,0.500,0,1.000,0,5.000,0
"04/05/08","09:06:54",5864.000,"cc",28355.729,6.00,6,0.100,5656.000,0.200,200.000,0.300,8.000,0.500,0,1.000,0,5.000,0
"04/05/08","09:07:00",6015.000,"cc",28331.647,6.00,6,0.100,5800.000,0.200,205.000,0.300,10.000,0.500,0,1.000,0,5.000,0
"04/05/08","09:07:06",6067.000,"cc",28243.246,6.00,6,0.100,5842.000,0.200,211.000,0.300,14.000,0.500,0,1.000,0,5.000,0
"04/05/08","09:07:12",5645.000,"cc",28312.859,6.00,6,0.100,5466.000,0.200,167.000,0.300,11.000,0.500,1.000,1.000,0,5.000,0
"04/05/08","09:07:18",5930.000,"cc",28339.195,6.00,6,0.100,5724.000,0.200,193.000,0.300,11.000,0.500,2.000,1.000,0,5.000,0
"04/05/08","09:07:24",6089.000,"cc",28334.199,6.00,6,0.100,5885.000,0.200,194.000,0.300,10.000,0.500,0,1.000,0,5.000,0
"04/05/08","09:07:30",6046.000,"cc",28316.893,6.00,6,0.100,5805.000,0.200,235.000,0.300,6.000,0.500,0,1.000,0,5.000,0
"04/05/08","09:07:36",6047.000,"cc",28305.008,6.00,6,0.100,5802.000,0.200,237.000,0.300,8.000,0.500,0,1.000,0,5.000,0
"04/05/08","09:07:42",6007.000,"cc",28300.816,6.00,6,0.100,5756.000,0.200,226.000,0.300,24.000,0.500,1.000,1.000,0,5.000,0
"04/05/08","09:07:48",5980.000,"cc",28288.408,6.00,6,0.100,5693.000,0.200,260.000,0.300,21.000,0.500,6.000,1.000,0,5.000,0
"04/05/08","09:07:54",5692.000,"cc",28323.012,6.00,6,0.100,5463.000,0.200,213.000,0.300,15.000,0.500,0,1.000,1.000,5.000,0
"04/05/08","09:08:00",5788.000,"cc",28351.697,6.00,6,0.100,5563.000,0.200,209.000,0.300,16.000,0.500,0,1.000,0,5.000,0
"04/05/08","09:08:06",5853.000,"cc",28360.721,6.00,6,0.100,5617.000,0.200,218.000,0.300,15.000,0.500,2.000,1.000,1.000,5.000,0
"04/05/08","09:08:12",5654.000,"cc",28302.145,6.00,6,0.100,5408.000,0.200,229.000,0.300,14.000,0.500,3.000,1.000,0,5.000,0
"04/05/08","09:08:18",5602.000,"cc",28291.180,6.00,6,0.100,5393.000,0.200,196.000,0.300,10.000,0.500,3.000,1.000,0,5.000,0
"04/05/08","09:08:24",5564.000,"cc",28303.492,6.00,6,0.100,5360.000,0.200,191.000,0.300,13.000,0.500,0,1.000,0,5.000,0
"04/05/08","09:08:30",5546.000,"cc",28330.338,6.00,6,0.100,5333.000,0.200,195.000,0.300,15.000,0.500,3.000,1.000,0,5.000,0
"04/05/08","09:08:36",5486.000,"cc",28339.139,6.00,6,0.100,5283.000,0.200,192.000,0.300,9.000,0.500,2.000,1.000,0,5.000,0
"04/05/08","09:08:42",5300.000,"cc",28337.645,6.00,6,0.100,5112.000,0.200,174.000,0.300,13.000,0.500,1.000,1.000,0,5.000,0
"04/05/08","09:08:48",5312.000,"cc",28346.090,6.00,6,0.100,5125.000,0.200,178.000,0.300,8.000,0.500,1.000,1.000,0,5.000,0
"04/05/08","09:08:54",5299.000,"cc",28284.400,6.00,6,0.100,5114.000,0.200,176.000,0.300,8.000,0.500,1.000,1.000,0,5.000,0
"04/05/08","09:09:00",5816.000,"cc",28298.438,6.00,6,0.100,5633.000,0.200,172.000,0.300,11.000,0.500,0,1.000,0,5.000,0
"04/05/08","09:09:06",5681.000,"cc",28326.395,6.00,6,0.100,5506.000,0.200,170.000,0.300,5.000,0.500,0,1.000,0,5.000,0
"04/05/08","09:09:12",5818.000,"cc",28271.143,6.00,6,0.100,5604.000,0.200,193.000,0.300,18.000,0.500,3.000,1.000,0,5.000,0
"04/05/08","09:09:18",5204.000,"cc",28315.547,6.00,6,0.100,5046.000,0.200,151.000,0.300,6.000,0.500,1.000,1.000,0,5.000,0
"04/05/08","09:09:24",5263.000,"cc",28370.711,6.00,6,0.100,5098.000,0.200,155.000,0.300,10.000,0.500,0,1.000,0,5.000,0
"04/05/08","09:09:30",5200.000,"cc",28325.027,6.00,6,0.100,5024.000,0.200,164.000,0.300,11.000,0.500,1.000,1.000,0,5.000,0
"04/05/08","09:09:36",5230.000,"cc",28285.836,6.00,6,0.100,5053.000,0.200,165.000,0.300,10.000,0.500,2.000,1.000,0,5.000,0
"04/05/08","09:09:42",5205.000,"cc",28273.240,6.00,6,0.100,5016.000,0.200,176.000,0.300,12.000,0.500,0,1.000,1.000,5.000,0
"04/05/08","09:09:48",5394.000,"cc",28286.797,6.00,6,0.100,5213.000,0.200,173.000,0.300,7.000,0.500,1.000,1.000,0,5.000,0
"04/05/08","09:09:54",5695.000,"cc",28374.076,6.00,6,0.100,5505.000,0.200,175.000,0.300,13.000,0.500,2.000,1.000,0,5.000,0
"04/05/08","09:10:00",5577.000,"cc",28339.254,6.00,6,0.100,5347.000,0.200,204.000,0.300,16.000,0.500,9.000,1.000,1.000,5.000,0
"04/05/08","09:10:06",5799.000,"cc",28304.178,6.00,6,0.100,5595.000,0.200,191.000,0.300,12.000,0.500,1.000,1.000,0,5.000,0
"04/05/08","09:10:12",5954.000,"cc",28332.900,6.00,6,0.100,5742.000,0.200,197.000,0.300,13.000,0.500,2.000,1.000,0,5.000,0
"04/05/08","09:10:18",6039.000,"cc",28307.006,6.00,6,0.100,5806.000,0.200,224.000,0.300,8.000,0.500,1.000,1.000,0,5.000,0
"04/05/08","09:10:24",5816.000,"cc",28277.285,6.00,6,0.100,5578.000,0.200,224.000,0.300,14.000,0.500,0,1.000,0,5.000,0
"04/05/08","09:10:30",5405.000,"cc",28326.900,6.00,6,0.100,5199.000,0.200,195.000,0.300,11.000,0.500,0,1.000,0,5.000,0
"04/05/08","09:10:36",5308.000,"cc",28320.213,6.00,6,0.100,5114.000,0.200,189.000,0.300,3.000,0.500,2.000,1.000,0,5.000,0
"04/05/08","09:10:42",5595.000,"cc",28321.629,6.00,6,0.100,5377.000,0.200,210.000,0.300,7.000,0.500,1.000,1.000,0,5.000,0
"04/05/08","09:10:48",5228.000,"cc",28329.092,6.00,6,0.100,5047.000,0.200,170.000,0.300,11.000,0.500,0,1.000,0,5.000,0
"04/05/08","09:10:54",5283.000,"cc",28337.322,6.00,6,0.100,5109.000,0.200,171.000,0.300,3.000,0.500,0,1.000,0,5.000,0
"04/05/08","09:11:00",5093.000,"cc",28352.670,6.00,6,0.100,4916.000,0.200,168.000,0.300,9.000,0.500,0,1.000,0,5.000,0
"04/05/08","09:11:06",4771.000,"cc",28302.799,6.00,6,0.100,4559.000,0.200,182.000,0.300,24.000,0.500,5.000,1.000,1.000,5.000,0
"04/05/08","09:11:12",4803.000,"cc",28300.498,6.00,6,0.100,4630.000,0.200,163.000,0.300,8.000,0.500,2.000,1.000,0,5.000,0
"04/05/08","09:11:18",4680.000,"cc",28331.363,6.00,6,0.100,4506.000,0.200,164.000,0.300,9.000,0.500,1.000,1.000,0,5.000,0
"04/05/08","09:11:24",4016.000,"cc",28298.350,6.00,6,0.100,3896.000,0.200,114.000,0.300,6.000,0.500,0,1.000,0,5.000,0
"04/05/08","09:11:30",3658.000,"cc",28308.180,6.00,6,0.100,3541.000,0.200,112.000,0.300,3.000,0.500,2.000,1.000,0,5.000,0
"04/05/08","09:11:36",3182.000,"cc",28348.455,6.00,6,0.100,3086.000,0.200,89.000,0.300,7.000,0.500,0,1.000,0,5.000,0
"04/05/08","09:11:42",3531.000,"cc",28333.619,6.00,6,0.100,3417.000,0.200,105.000,0.300,7.000,0.500,0,1.000,2.000,5.000,0
"04/05/08","09:11:48",3511.000,"cc",28302.352,6.00,6,0.100,3391.000,0.200,114.000,0.300,6.000,0.500,0,1.000,0,5.000,0
"04/05/08","09:11:54",3237.000,"cc",28297.369,6.00,6,0.100,3123.000,0.200,97.000,0.300,12.000,0.500,4.000,1.000,1.000,5.000,0
"04/05/08","09:12:00",3204.000,"cc",28339.277,6.00,6,0.100,3100.000,0.200,101.000,0.300,2.000,0.500,1.000,1.000,0,5.000,0
"04/05/08","09:12:06",3181.000,"cc",28313.027,6.00,6,0.100,3091.000,0.200,85.000,0.300,5.000,0.500,0,1.000,0,5.000,0
"04/05/08","09:12:12",3305.000,"cc",28282.695,6.00,6,0.100,3204.000,0.200,99.000,0.300,2.000,0.500,0,1.000,0,5.000,0
"04/05/08","09:12:18",3282.000,"cc",28342.543,6.00,6,0.100,3180.000,0.200,96.000,0.300,5.000,0.500,1.000,1.000,0,5.000,0
"04/05/08","09:12:24",3333.000,"cc",28323.307,6.00,6,0.100,3208.000,0.200,116.000,0.300,7.000,0.500,2.000,1.000,0,5.000,0
"04/05/08","09:12:30",3163.000,"cc",28311.053,6.00,6,0.100,3073.000,0.200,84.000,0.300,6.000,0.500,0,1.000,0,5.000,0
"04/05/08","09:12:36",3678.000,"cc",28334.473,6.00,6,0.100,3550.000,0.200,121.000,0.300,6.000,0.500,1.000,1.000,0,5.000,0
"04/05/08","09:12:42",4133.000,"cc",28371.918,6.00,6,0.100,3988.000,0.200,142.000,0.300,2.000,0.500,1.000,1.000,0,5.000,0
"04/05/08","09:12:48",4382.000,"cc",28323.004,6.00,6,0.100,4240.000,0.200,133.000,0.300,7.000,0.500,2.000,1.000,0,5.000,0
"04/05/08","09:12:54",5158.000,"cc",28295.172,6.00,6,0.100,4956.000,0.200,188.000,0.300,14.000,0.500,0,1.000,0,5.000,0
"04/05/08","09:13:00",5509.000,"cc",28293.270,6.00,6,0.100,5346.000,0.200,156.000,0.300,6.000,0.500,1.000,1.000,0,5.000,0
"04/05/08","09:13:06",5587.000,"cc",28318.795,6.00,6,0.100,5388.000,0.200,196.000,0.300,3.000,0.500,0,1.000,0,5.000,0
"04/05/08","09:13:12",5606.000,"cc",28313.375,6.00,6,0.100,5440.000,0.200,157.000,0.300,9.000,0.500,0,1.000,0,5.000,0
"04/05/08","09:13:18",5759.000,"cc",28307.764,6.00,6,0.100,5554.000,0.200,191.000,0.300,13.000,0.500,1.000,1.000,0,5.000,0
"04/05/08","09:13:24",5556.000,"cc",28358.258,6.00,6,0.100,5364.000,0.200,188.000,0.300,4.000,0.500,0,1.000,0,5.000,0
"04/05/08","09:13:30",5389.000,"cc",28257.684,6.00,6,0.100,5193.000,0.200,183.000,0.300,13.000,0.500,0,1.000,0,5.000,0
"04/05/08","09:13:36",5370.000,"cc",28404.537,6.00,6,0.100,5111.000,0.200,225.000,0.300,19.000,0.500,14.000,1.000,1.000,5.000,0
"04/05/08","09:13:42",5325.000,"cc",28315.430,6.00,6,0.100,5115.000,0.200,195.000,0.300,14.000,0.500,1.000,1.000,0,5.000,0
"04/05/08","09:13:48",5064.000,"cc",28269.371,6.00,6,0.100,4904.000,0.200,154.000,0.300,6.000,0.500,0,1.000,0,5.000,0
"04/05/08","09:13:54",5027.000,"cc",28362.920,6.00,6,0.100,4846.000,0.200,168.000,0.300,13.000,0.500,0,1.000,0,5.000,0
"04/05/08","09:14:00",4999.000,"cc",28281.932,6.00,6,0.100,4819.000,0.200,167.000,0.300,11.000,0.500,2.000,1.000,0,5.000,0
"04/05/08","09:14:06",4893.000,"cc",28301.283,6.00,6,0.100,4721.000,0.200,165.000,0.300,6.000,0.500,1.000,1.000,0,5.000,0
"04/05/08","09:14:12",4664.000,"cc",28277.840,6.00,6,0.100,4502.000,0.200,151.000,0.300,11.000,0.500,0,1.000,0,5.000,0
"04/05/08","09:14:18",4541.000,"cc",28326.147,6.00,6,0.100,4381.000,0.200,150.000,0.300,10.000,0.500,0,1.000,0,5.000,0
"04/05/08","09:14:24",4322.000,"cc",28390.350,6.00,6,0.100,4176.000,0.200,132.000,0.300,14.000,0.500,0,1.000,0,5.000,0
"04/05/08","09:14:30",4233.000,"cc",28262.313,6.00,6,0.100,4113.000,0.200,111.000,0.300,9.000,0.500,0,1.000,0,5.000,0
"04/05/08","09:14:36",4491.000,"cc",28239.594,6.00,6,0.100,4343.000,0.200,137.000,0.300,11.000,0.500,0,1.000,0,5.000,0
"04/05/08","09:14:42",4264.000,"cc",28346.703,6.00,6,0.100,4108.000,0.200,143.000,0.300,12.000,0.500,1.000,1.000,0,5.000,0
"04/05/08","09:14:48",4373.000,"cc",28360.926,6.00,6,0.100,4222.000,0.200,137.000,0.300,12.000,0.500,2.000,1.000,0,5.000,0
"04/05/08","09:14:54",4299.000,"cc",28341.182,6.00,6,0.100,4171.000,0.200,120.000,0.300,7.000,0.500,1.000,1.000,0,5.000,0
"04/05/08","09:15:00",4935.000,"cc",28326.143,6.00,6,0.100,4762.000,0.200,154.000,0.300,19.000,0.500,0,1.000,0,5.000,0
"04/05/08","09:15:06",4598.000,"cc",28342.779,6.00,6,0.100,4444.000,0.200,140.000,0.300,13.000,0.500,1.000,1.000,0,5.000,0
"04/05/08","09:15:12",4868.000,"cc",28261.227,6.00,6,0.100,4686.000,0.200,170.000,0.300,12.000,0.500,0,1.000,0,5.000,0
"04/05/08","09:15:18",4531.000,"cc",28298.082,6.00,6,0.100,4403.000,0.200,120.000,0.300,7.000,0.500,1.000,1.000,0,5.000,0
"04/05/08","09:15:24",4669.000,"cc",28298.326,6.00,6,0.100,4512.000,0.200,151.000,0.300,5.000,0.500,0,1.000,1.000,5.000,0
"04/05/08","09:15:30",4431.000,"cc",28361.172,6.00,6,0.100,4309.000,0.200,117.000,0.300,5.000,0.500,0,1.000,0,5.000,0
"04/05/08","09:15:36",4483.000,"cc",28359.178,6.00,6,0.100,4353.000,0.200,121.000,0.300,8.000,0.500,1.000,1.000,0,5.000,0
"04/05/08","09:15:42",4429.000,"cc",28295.287,6.00,6,0.100,4303.000,0.200,113.000,0.300,12.000,0.500,1.000,1.000,0,5.000,0
"04/05/08","09:15:48",4554.000,"cc",28318.731,6.00,6,0.100,4423.000,0.200,122.000,0.300,9.000,0.500,0,1.000,0,5.000,0
"04/05/08","09:15:54",4795.000,"cc",28287.957,6.00,6,0.100,4647.000,0.200,138.000,0.300,9.000,0.500,1.000,1.000,0,5.000,0
"04/05/08","09:16:00",4913.000,"cc",28289.736,6.00,6,0.100,4750.000,0.200,147.000,0.300,16.000,0.500,0,1.000,0,5.000,0
"04/05/08","09:16:06",4870.000,"cc",28339.199,6.00,6,0.100,4727.000,0.200,134.000,0.300,9.000,0.500,0,1.000,0,5.000,0
"04/05/08","09:16:12",5111.000,"cc",28336.227,6.00,6,0.100,4964.000,0.200,136.000,0.300,9.000,0.500,1.000,1.000,1.000,5.000,0
"04/05/08","09:16:18",5126.000,"cc",28303.969,6.00,6,0.100,4955.000,0.200,149.000,0.300,14.000,0.500,7.000,1.000,1.000,5.000,0
"04/05/08","09:16:24",4885.000,"cc",28320.016,6.00,6,0.100,4723.000,0.200,149.000,0.300,13.000,0.500,0,1.000,0,5.000,0
"04/05/08","09:16:30",4891.000,"cc",28337.158,6.00,6,0.100,4754.000,0.200,130.000,0.300,7.000,0.500,0,1.000,0,5.000,0
"04/05/08","09:16:36",4892.000,"cc",28371.141,6.00,6,0.100,4721.000,0.200,160.000,0.300,11.000,0.500,0,1.000,0,5.000,0
"04/05/08","09:16:42",4951.000,"cc",28294.580,6.00,6,0.100,4806.000,0.200,138.000,0.300,7.000,0.500,0,1.000,0,5.000,0
"04/05/08","09:16:48",4874.000,"cc",28344.941,6.00,6,0.100,4729.000,0.200,136.000,0.300,8.000,0.500,1.000,1.000,0,5.000,0
"04/05/08","09:16:54",4984.000,"cc",28272.279,6.00,6,0.100,4859.000,0.200,118.000,0.300,5.000,0.500,2.000,1.000,0,5.000,0
"04/05/08","09:17:00",4937.000,"cc",28351.842,6.00,6,0.100,4768.000,0.200,160.000,0.300,8.000,0.500,1.000,1.000,0,5.000,0
"04/05/08","09:17:06",4895.000,"cc",28284.975,6.00,6,0.100,4742.000,0.200,144.000,0.300,9.000,0.500,0,1.000,0,5.000,0
"04/05/08","09:17:12",5000.000,"cc",28318.725,6.00,6,0.100,4838.000,0.200,147.000,0.300,15.000,0.500,0,1.000,0,5.000,0
"04/05/08","09:17:18",5025.000,"cc",28320.502,6.00,6,0.100,4870.000,0.200,133.000,0.300,21.000,0.500,1.000,1.000,0,5.000,0
"04/05/08","09:17:24",5096.000,"cc",28328.102,6.00,6,0.100,4910.000,0.200,172.000,0.300,7.000,0.500,7.000,1.000,0,5.000,0
"04/05/08","09:17:30",4922.000,"cc",28279.291,6.00,6,0.100,4761.000,0.200,138.000,0.300,13.000,0.500,8.000,1.000,2.000,5.000,0
"04/05/08","09:17:36",4955.000,"cc",28335.527,6.00,6,0.100,4757.000,0.200,172.000,0.300,18.000,0.500,5.000,1.000,3.000,5.000,0
"04/05/08","09:17:42",5195.000,"cc",28370.289,6.00,6,0.100,5020.000,0.200,161.000,0.300,11.000,0.500,2.000,1.000,1.000,5.000,0
"04/05/08","09:17:48",4488.000,"cc",28300.066,6.00,6,0.100,4341.000,0.200,136.000,0.300,9.000,0.500,1.000,1.000,1.000,5.000,0
"04/05/08","09:17:54",4612.000,"cc",28283.074,6.00,6,0.100,4450.000,0.200,135.000,0.300,14.000,0.500,9.000,1.000,4.000,5.000,0
"04/05/08","09:18:00",4658.000,"cc",28330.426,6.00,6,0.100,4463.000,0.200,137.000,0.300,20.000,0.500,29.000,1.000,9.000,5.000,0
"04/05/08","09:18:06",4740.000,"cc",28263.486,6.00,6,0.100,4587.000,0.200,126.000,0.300,17.000,0.500,8.000,1.000,2.000,5.000,0
"04/05/08","09:18:12",5107.000,"cc",28298.949,6.00,6,0.100,4943.000,0.200,157.000,0.300,5.000,0.500,2.000,1.000,0,5.000,0
"04/05/08","09:18:18",5027.000,"cc",28406.522,6.00,6,0.100,4819.000,0.200,185.000,0.300,17.000,0.500,3.000,1.000,3.000,5.000,0
"04/05/08","09:18:24",4861.000,"cc",28268.162,6.00,6,0.100,4724.000,0.200,128.000,0.300,6.000,0.500,1.000,1.000,2.000,5.000,0
"04/05/08","09:18:30",5073.000,"cc",28283.369,6.00,6,0.100,4897.000,0.200,150.000,0.300,12.000,0.500,11.000,1.000,3.000,5.000,0